Weather History for LIVP - November, 2012

Change the Weather History Date:

Sunday, November 4, 2012

  Actual Average (LIVR) Record (LIVR)
Temperature  
Mean Temperature 37 °F -  
Max Temperature 41 °F 33 °F - (-1)
Min Temperature 33 °F 25 °F - (-1)
Degree Days  
Heating Degree Days 28    
Moisture  
Dew Point 36 °F    
Average Humidity 100    
Maximum Humidity 100    
Minimum Humidity 98    
Precipitation  
Precipitation 0.12 in 0.06 in - ()
Sea Level Pressure  
Sea Level Pressure 29.78 in    
Wind  
Wind Speed 15 mph ()    
Max Wind Speed 25 mph    
Max Gust Speed 38 mph    
Visibility 0.0 miles    
Events Fog , Rain , Snow    
Averages and records for this station are not official NWS values.
T = Trace of Precipitation, MM = Missing Value Source: Averaged Metar Reports

Daily Weather History Graph

Daily Weather History Graph

Search for Another Location

Airport or City:

Trip Planner

Search our weather history database for the weather conditions in past years. The results will help you decide how hot, cold, wet, or windy it might be!

Date:

Astronomy

Nov. 04, 2012 Rise Set
Actual Time 7:01 AM CET 4:56 PM CET
Civil Twilight 6:29 AM CET 5:28 PM CET
Nautical Twilight 5:54 AM CET 6:04 PM CET
Astronomical Twilight 5:19 AM CET 6:38 PM CET
Moon 9:15 PM CET 11:38 AM CET
Length of Visible Light 10h 58m
Length of Day
9h 55m
Waning Gibbous, 74% of the Moon is Illuminated
Nov 4
Waning Gibbous
Nov 7
Last Quarter
Nov 13
New
Nov 20
First Quarter
Nov 28
Full

Hourly Weather History & Observations

Time (CET) Temp. Windchill Dew Point Humidity Pressure Visibility Wind Dir Wind Speed Gust Speed Precip Events Conditions
12:55 AM 33.8 °F 22.5 °F 33.8 °F 100% 29.89 in 0.0 mi SSW 19.6 mph - N/A Fog Fog
1:00 AM 33 °F - 33 °F 100%  in 0 mi SSW 19.6 mph - - Fog Heavy Fog
1:55 AM 33.8 °F 22.5 °F 33.8 °F 100% 29.86 in 0.0 mi SSW 19.6 mph - N/A Fog Fog
2:55 AM 33.8 °F 22.5 °F 33.8 °F 100% 29.86 in 0.0 mi SSW 19.6 mph 31.1 mph N/A Fog , Rain , Snow Light Rain
3:55 AM 33.8 °F 24.3 °F 33.8 °F 100% 29.86 in 0.0 mi South 13.8 mph - N/A Fog , Rain , Snow Light Rain
4:00 AM 34 °F - 34 °F 99%  in 0 mi South 13.8 mph - - Snow Light Snow
4:55 AM 33.8 °F 23.9 °F 33.8 °F 100% 29.86 in 0.0 mi South 15.0 mph - N/A Fog , Rain , Snow Light Rain
5:55 AM 30.2 °F 19.8 °F 30.2 °F 100% 29.83 in 0.0 mi South 13.8 mph - N/A Fog , Rain Light Freezing Rain
6:55 AM 33.8 °F 25.8 °F 33.8 °F 100% 29.83 in 0.0 mi South 10.4 mph - N/A Fog , Rain Light Rain
7:00 AM 34 °F - 34 °F 100%  in 0 mi South 10.4 mph - - Rain Light Rain
7:55 AM 33.8 °F 24.3 °F 33.8 °F 100% 29.83 in 0.0 mi South 13.8 mph - N/A Fog Light Drizzle
8:55 AM 35.6 °F 27.1 °F 35.6 °F 100% 29.86 in 0.0 mi South 12.7 mph - N/A Fog Light Drizzle
9:55 AM 35.6 °F 27.1 °F 35.6 °F 100% 29.86 in 0.0 mi South 12.7 mph - N/A Fog Light Drizzle
10:55 AM 35.6 °F 26.6 °F 35.6 °F 100% 29.86 in 0.0 mi South 13.8 mph - N/A Fog Light Drizzle
11:55 AM 35.6 °F 27.1 °F 35.6 °F 100% 29.83 in 0.0 mi SSE 12.7 mph - N/A Fog Light Drizzle
12:55 PM 37.4 °F 28.5 °F 37.4 °F 100% 29.83 in 0.0 mi South 15.0 mph - N/A Fog Light Drizzle
1:00 PM 37 °F - 37 °F 98%  in 0 mi South 15.0 mph - - Rain Light Drizzle
1:55 PM 37.4 °F 28.5 °F 37.4 °F 100% 29.83 in 0.0 mi South 15.0 mph - N/A Fog Light Drizzle
2:55 PM 37.4 °F 28.5 °F 37.4 °F 100% 29.80 in 0.0 mi South 15.0 mph - N/A Fog Light Drizzle
3:55 PM 37.4 °F 28.5 °F 37.4 °F 100% 29.77 in 0.0 mi South 15.0 mph - N/A Fog Light Drizzle
4:00 PM 37 °F - 37 °F 100%  in 0 mi South 15.0 mph - - Rain Light Drizzle
4:55 PM 37.4 °F 28.2 °F 37.4 °F 100% 29.77 in 0.0 mi South 16.1 mph - N/A Fog Light Drizzle
5:55 PM 37.4 °F 27.5 °F 37.4 °F 100% 29.74 in 0.0 mi SSW 18.4 mph - N/A Fog , Rain Light Rain
6:55 PM 37.4 °F 25.9 °F 37.4 °F 100% 29.71 in 0.0 mi SSW 25.3 mph - N/A Fog , Rain Light Rain
7:00 PM 38 °F - 38 °F 100%  in 0 mi SSW 25.3 mph - - Rain Light Rain
7:55 PM 39.2 °F 28.5 °F 39.2 °F 100% 29.68 in 0.0 mi SSW 24.2 mph - N/A Fog , Rain Light Rain
8:55 PM 39.2 °F 33.0 °F 39.2 °F 100% 29.65 in 0.0 mi SSE 9.2 mph - N/A Fog , Rain Rain
9:55 PM 41.0 °F 32.5 °F 41.0 °F 100% 29.59 in 0.0 mi SE 17.3 mph - N/A Fog , Rain Rain
10:00 PM 40 °F - 40 °F 100%  in 0 mi SE 17.3 mph - - Rain Rain
10:55 PM 41.0 °F 33.1 °F 41.0 °F 100% 29.56 in 0.0 mi South 15.0 mph 26.5 mph N/A Fog , Rain Rain
11:55 PM 41.0 °F 31.1 °F 41.0 °F 100% 29.53 in 0.0 mi South 23.0 mph 38.0 mph N/A Fog , Rain Rain